Location: Dortmund
(51.5019°N, 7.6520°E)
Time: 20:22:58
(UTC+02:00)

ISS - Pass Details

Date: 26 March 2019
Orbit: 408 x 410 km, 51.6° (Epoch: 22 April)

Event Time Altitude Azimuth Distance (km) Brightness Sun altitude
Rises 20:58:31 0° 262° (W) 2,336 0.9 -19.4°
Reaches altitude 10° 21:00:37 10° 263° (W) 1,475 -0.3 -19.7°
Enters shadow 21:03:47 82° 265° (W) 418 -3.8 -20.1°
